Location: Unspecified
(17.6330°N, 0.0000°E)
Time: 10:43:23
(UTC+00:00)

A-11 Canister half - Pass Details

Date: 25 June 2019
Orbit: 1514 x 1686 km, 47.2° (Epoch: 16 October)

Event Time Altitude Azimuth Distance (km) Brightness Sun altitude
Rises 16:40:45 0° 322° (NW) 4,743 12.4 25.2°
Reaches altitude 10° 16:43:58 10° 326° (NW) 3,737 12.0 24.5°
Maximum altitude 16:53:10 58° 44° (NE) 1,740 9.5 22.4°
Drops below altitude 10° 17:02:11 10° 121° (ESE) 3,664 10.5 20.4°
Sets 17:05:16 0° 125° (SE) 4,646 10.9 19.7°
